01:30
Airports
History
Links
Donate
Help keep this website running!
PayPal
Bitcoin
This page is community maintained. The information is intended for PC simulator navigation or reference.
Always use approved charts for navigation.
I89
Fayette
Fayette (I89)
Fayetteville, West Virginia, United States (25840)
(U)
Lat/Lng:38° 1' 36.4" N / 81° 7' 11.37" W
38.026778 / -81.119824
Elevation:1960'ft / 597mMSL
ID / ICAO:I89
Runways:1
Longest:03-21
Asphalt 612m / 2,006ft
Nearby Weather00:51 GMT 2017-10-20
Nearby weather at KBKW, Raleigh County Memorial located 16.5 nautical miles from I89
Altimeter: 30.28
Visibility: 10.0 statute miles
Wind: 0 knots (from 000°)
Temp: 12°c / 54°f
Humidity: 58.0%

METAR: KBKW 200051Z AUTO 00000KT 10SM CLR 12/04 A3028 RMK AO2 SLP250 T01170039 TSNO

(Powered by phpweather)
Nearby VORs <50NM
Nearby NDBs
Runway 03 / 21
Dimensions:611.5 x 6.1m 2006' x 20'ft
Surface:Asphalt
Edge Lights:Medium intensity
Runway 03 [A]Runway 21 [B]
Heading:024°TH 204°TH
Lat:
Lng:
38° 1' 27.33"N
81° 7' 16.49"W
38° 1' 45.47"N
81° 7' 6.24"W
ALS:RAIL
User Notes and Comments
38° 1' 36.4" N / 81° 7' 11.37" W
Distance To
Airport ID:
Nearby Airports
(R) New River Gorge 5.2 NM
WV32 NE 34°
(R) Lee Massey 7.9 NM
WV01 NNE 26°
(U) Raleigh County Memorial 16.5 NM
KBKW ( WX ) S 180°
(U) Summersville 19.6 NM
KSXL NE 43°
(R) Rainelle 22.6 NM
WV30 ESE 103°
4 Rainelle 22.6 NM
9W4 ESE 103°
(R) Island 26.0 NM
WV08 WNW 300°
VFR Chart
Flight Planning at SkyVector.com